Погода в Богазкенте

Турция     36°51′30″N   31°09′33″E
темп.,
°C
ветер,
м/с
пор.,
м/с
влажн.,
%
обл.,
%
осадки,
мм/ч
давл.,
гПа
погр.,
м
12 мая, ср
ср1200:00+21в11644 0.0 100945
03:00+20с11555 0.0 100887
06:00+20всв12582 0.0 1008170
09:00+21вюв23580 0.0 1010281
12:00+22ююв55670 0.0 1010404
15:00+22ю44650 0.0 1009381
18:00+22ю44650 0.0 1009442
21:00+21зюз00695 0.0 1010183
13 мая, чт
чт1300:00+20ссз2270100 0.0 1010146
03:00+19ссв2269100 0.0 1009113
06:00+20ссв116574 0.0 1010121
09:00+21вюв11640 0.0 1012229
12:00+22ю44653 0.0 1012446
15:00+22ююв556820 0.0 1012507
18:00+22ю44681 0.0 1012482
21:00+21ююв23714 0.0 1013295
14 мая, пт
пт1400:00+21вюв22670 0.0 1013346
03:00+20св22695 0.0 1012271
06:00+19св22720 0.0 1012198
09:00+20св11615 0.0 1014165
12:00+22ююв336410 0.0 1014376
15:00+22ю43630 0.0 1014444
18:00+22юз32670 0.0 1013365
21:00+21юз11670 0.0 1013167
15 мая, сб
сб1500:00+21ссз11680 0.0 1012135
03:00+20ссв11690 0.0 1011115
06:00+20всв11700 0.0 1011156
09:00+21ююв12680 0.0 1012272
12:00+22ю43676 0.0 1012327
15:00+22ю33675 0.0 1011362
18:00+23ю44675 0.0 1009427
21:00+21вюв577216 0.0 1008398
16 мая, вс
вс1600:00+21вюв4571100 0.0 1008567
03:00+21вюв56715 0.0 1006577
06:00+19всв678140 0.0 1006430
09:00+21в5774100 0.0 1007724
12:00+22юв997497 0.0 1006899
15:00+22ююв997626 0.0 1006920
18:00+22ю78661 0.0 1005999
21:00+21ююв1112722 0.0 10051010